�������l�o���
Date,Time,MP-1(��Sv/h),MP-2(��Sv/h),MP-3(��Sv/h),MP-4(��Sv/h),MP-5(��Sv/h),MP-6(��Sv/h),MP-7(��Sv/h),MP-8(��Sv/h),����,����(m/s),���J
2021/08/14,00:00,0.559,0.826,0.537,0.997,0.688,0.350,0.600,0.567,�k,5.1,�L
2021/08/14,00:10,0.555,0.824,0.536,0.994,0.685,0.350,0.599,0.567,�k,5.4,�L
2021/08/14,00:20,0.558,0.822,0.538,0.995,0.687,0.351,0.599,0.567,�k,5.0,�L
2021/08/14,00:30,0.559,0.825,0.539,0.995,0.689,0.351,0.600,0.566,�k�k��,5.4,�L
2021/08/14,00:40,0.558,0.826,0.539,0.996,0.686,0.350,0.600,0.567,�k,6.3,�L
2021/08/14,00:50,0.559,0.824,0.536,0.996,0.685,0.350,0.599,0.567,�k�k��,4.3,�L
2021/08/14,01:00,0.553,0.817,0.536,0.988,0.678,0.348,0.598,0.566,�k,7.8,�L
2021/08/14,01:10,0.553,0.818,0.533,0.987,0.677,0.348,0.597,0.564,�k,6.1,�L
2021/08/14,01:20,0.555,0.818,0.535,0.988,0.679,0.351,0.596,0.566,�k�k��,6.9,�L
2021/08/14,01:30,0.557,0.822,0.535,0.990,0.680,0.351,0.597,0.565,�k�k��,7.4,�L
2021/08/14,01:40,0.559,0.826,0.538,0.993,0.680,0.351,0.600,0.566,�k�k��,8.2,�L
2021/08/14,01:50,0.562,0.825,0.539,0.998,0.681,0.352,0.599,0.565,�k�k��,9.1,�L
2021/08/14,02:00,0.563,0.828,0.538,1.000,0.683,0.352,0.602,0.569,�k�k��,8.5,�L
2021/08/14,02:10,0.564,0.829,0.540,1.003,0.684,0.352,0.602,0.569,�k�k��,9.4,�L
2021/08/14,02:20,0.565,0.830,0.540,1.006,0.683,0.353,0.602,0.570,�k�k��,8.3,�L
2021/08/14,02:30,0.566,0.831,0.540,1.007,0.684,0.354,0.604,0.571,�k�k��,8.9,�L
2021/08/14,02:40,0.566,0.832,0.540,1.007,0.687,0.353,0.604,0.570,�k�k��,9.1,�L
2021/08/14,02:50,0.566,0.833,0.541,1.007,0.686,0.353,0.602,0.570,�k�k��,9.5,�L
2021/08/14,03:00,0.564,0.831,0.540,1.008,0.686,0.353,0.604,0.571,�k�k��,10.2,�L
2021/08/14,03:10,0.565,0.832,0.542,1.010,0.684,0.355,0.602,0.572,�k�k��,9.7,�L
2021/08/14,03:20,0.566,0.832,0.541,1.011,0.687,0.355,0.602,0.571,�k�k��,10.8,�L
2021/08/14,03:30,0.566,0.835,0.542,1.010,0.688,0.355,0.604,0.572,�k�k��,9.4,�L
2021/08/14,03:40,0.568,0.833,0.543,1.012,0.687,0.354,0.605,0.571,�k�k��,8.4,�L
2021/08/14,03:50,0.565,0.834,0.540,1.014,0.688,0.353,0.605,0.572,�k�k��,9.1,�L
2021/08/14,04:00,0.567,0.834,0.540,1.011,0.689,0.354,0.605,0.571,�k�k��,9.9,�L
2021/08/14,04:10,0.566,0.835,0.539,1.014,0.687,0.353,0.604,0.571,�k�k��,9.8,�L
2021/08/14,04:20,0.566,0.835,0.540,1.013,0.688,0.355,0.604,0.571,�k�k��,9.0,�L
2021/08/14,04:30,0.566,0.832,0.539,1.014,0.688,0.355,0.603,0.571,�k��,9.4,�L
2021/08/14,04:40,0.565,0.833,0.540,1.014,0.690,0.352,0.605,0.571,�k��,8.4,�L
2021/08/14,04:50,0.566,0.835,0.540,1.016,0.690,0.354,0.606,0.571,�k��,8.3,�L
2021/08/14,05:00,0.566,0.833,0.541,1.017,0.691,0.354,0.604,0.571,�k��,8.6,�L
2021/08/14,05:10,0.566,0.832,0.541,1.017,0.691,0.353,0.602,0.570,�k�k��,9.3,�L
2021/08/14,05:20,0.567,0.833,0.541,1.018,0.691,0.353,0.605,0.571,�k�k��,8.9,�L
2021/08/14,05:30,0.568,0.833,0.542,1.017,0.691,0.352,0.605,0.571,�k�k��,9.0,�L
2021/08/14,05:40,0.567,0.836,0.539,1.016,0.691,0.353,0.604,0.570,�k�k��,8.3,�L
2021/08/14,05:50,0.567,0.835,0.541,1.018,0.691,0.353,0.603,0.570,�k�k��,8.0,�L
2021/08/14,06:00,0.567,0.835,0.539,1.016,0.693,0.353,0.605,0.571,�k�k��,7.6,�L
2021/08/14,06:10,0.566,0.837,0.539,1.019,0.692,0.352,0.606,0.570,�k�k��,7.7,�L
2021/08/14,06:20,0.567,0.834,0.540,1.018,0.693,0.352,0.604,0.570,�k�k��,8.3,�L
2021/08/14,06:30,0.565,0.835,0.537,1.021,0.694,0.352,0.604,0.571,�k�k��,9.0,��
2021/08/14,06:40,0.566,0.836,0.540,1.022,0.694,0.352,0.604,0.572,�k��,9.4,��
2021/08/14,06:50,0.567,0.836,0.539,1.022,0.695,0.353,0.605,0.572,�k�k��,8.9,��
2021/08/14,07:00,0.567,0.840,0.540,1.020,0.694,0.352,0.606,0.571,�k�k��,7.3,��
2021/08/14,07:10,0.567,0.838,0.539,1.025,0.697,0.352,0.605,0.572,�k�k��,8.8,��
2021/08/14,07:20,0.566,0.840,0.540,1.023,0.695,0.352,0.606,0.572,�k�k��,8.5,��
2021/08/14,07:30,0.569,0.840,0.542,1.025,0.697,0.353,0.606,0.571,�k�k��,7.9,��
2021/08/14,07:40,0.567,0.839,0.542,1.025,0.698,0.353,0.607,0.572,�k�k��,7.8,��
2021/08/14,07:50,0.568,0.840,0.543,1.025,0.698,0.352,0.606,0.572,�k��,9.2,��
2021/08/14,08:00,0.569,0.842,0.542,1.028,0.700,0.351,0.607,0.572,�k�k��,6.4,��
2021/08/14,08:10,0.570,0.842,0.541,1.027,0.699,0.353,0.607,0.574,�k��,8.2,��
2021/08/14,08:20,0.571,0.843,0.542,1.029,0.701,0.352,0.608,0.571,�k�k��,8.6,��
2021/08/14,08:30,0.569,0.845,0.543,1.027,0.700,0.353,0.607,0.572,�k��,7.7,��
2021/08/14,08:40,0.571,0.844,0.543,1.031,0.699,0.352,0.609,0.572,�k�k��,7.5,��
2021/08/14,08:50,0.570,0.845,0.542,1.028,0.702,0.353,0.608,0.573,�k�k��,7.8,��
2021/08/14,09:00,0.571,0.844,0.542,1.029,0.705,0.354,0.609,0.573,�k�k��,7.6,��
2021/08/14,09:10,0.569,0.846,0.543,1.033,0.703,0.354,0.609,0.575,�k�k��,6.7,��
2021/08/14,09:20,0.571,0.844,0.549,1.032,0.703,0.354,0.609,0.574,�k�k��,7.1,��
2021/08/14,09:30,0.570,0.845,0.543,1.034,0.705,0.352,0.610,0.573,�k�k��,7.5,��
2021/08/14,09:40,0.571,0.849,0.542,1.032,0.704,0.354,0.610,0.573,�k�k��,6.8,��
2021/08/14,09:50,0.571,0.844,0.544,1.031,0.705,0.354,0.610,0.574,�k�k��,6.1,�L
2021/08/14,10:00,0.569,0.847,0.543,1.031,0.706,0.354,0.610,0.573,�k�k��,5.4,�L
2021/08/14,10:10,0.571,0.845,0.543,1.033,0.706,0.354,0.611,0.574,�k�k��,6.4,�L
2021/08/14,10:20,0.572,0.846,0.547,1.032,0.705,0.356,0.610,0.573,�k�k��,6.5,�L
2021/08/14,10:30,0.572,0.843,0.545,1.030,0.704,0.356,0.611,0.574,�k�k��,6.6,�L
2021/08/14,10:40,0.571,0.845,0.544,1.035,0.707,0.355,0.609,0.573,�k�k��,6.7,�L
2021/08/14,10:50,0.572,0.843,0.545,1.034,0.705,0.356,0.610,0.574,�k�k��,6.7,�L
2021/08/14,11:00,0.571,0.843,0.546,1.035,0.706,0.354,0.610,0.575,�k�k��,6.2,�L
2021/08/14,11:10,0.572,0.843,0.545,1.036,0.707,0.356,0.610,0.574,�k�k��,6.2,�L
2021/08/14,11:20,0.572,0.845,0.545,1.034,0.705,0.355,0.609,0.575,�k�k��,5.7,�L
2021/08/14,11:30,0.572,0.843,0.546,1.037,0.704,0.355,0.611,0.575,�k�k��,5.4,�L
2021/08/14,11:40,0.571,0.844,0.546,1.036,0.705,0.357,0.611,0.575,�k�k��,5.9,�L
2021/08/14,11:50,0.573,0.846,0.545,1.035,0.706,0.355,0.609,0.574,�k�k��,6.0,�L
2021/08/14,12:00,0.572,0.842,0.545,1.036,0.706,0.357,0.610,0.576,�k�k��,6.9,�L
2021/08/14,12:10,0.572,0.844,0.544,1.036,0.706,0.356,0.608,0.573,�k�k��,6.8,�L
2021/08/14,12:20,0.570,0.840,0.544,1.035,0.705,0.356,0.609,0.575,�k�k��,5.6,�L
2021/08/14,12:30,0.570,0.837,0.546,1.034,0.706,0.355,0.610,0.571,�k�k��,7.0,�L
2021/08/14,12:40,0.572,0.838,0.544,1.033,0.704,0.356,0.609,0.573,�k�k��,6.9,�L
2021/08/14,12:50,0.569,0.837,0.543,1.031,0.702,0.356,0.608,0.573,�k�k��,7.0,�L
2021/08/14,13:00,0.567,0.835,0.544,1.027,0.702,0.356,0.606,0.574,�k�k��,5.8,�L
2021/08/14,13:10,0.565,0.833,0.544,1.022,0.699,0.354,0.604,0.571,�k�k��,8.3,�L
2021/08/14,13:20,0.564,0.833,0.543,1.019,0.698,0.354,0.604,0.569,�k�k��,8.0,�L
2021/08/14,13:30,0.562,0.829,0.540,1.013,0.695,0.354,0.604,0.570,�k�k��,7.2,�L
2021/08/14,13:40,0.562,0.826,0.540,1.006,0.694,0.351,0.603,0.569,�k�k��,9.7,�L
2021/08/14,13:50,0.560,0.824,0.539,1.003,0.693,0.352,0.600,0.569,�k�k��,8.8,�L
2021/08/14,14:00,0.561,0.825,0.537,1.001,0.691,0.352,0.599,0.566,�k�k��,8.7,�L
2021/08/14,14:10,0.558,0.824,0.537,0.998,0.688,0.353,0.599,0.565,�k�k��,8.5,�L
2021/08/14,14:20,0.556,0.817,0.536,0.994,0.684,0.351,0.598,0.564,�k�k��,7.1,�L
2021/08/14,14:30,0.556,0.820,0.535,0.992,0.685,0.354,0.599,0.565,�k�k��,8.5,�L
2021/08/14,14:40,0.560,0.823,0.538,0.996,0.687,0.354,0.601,0.564,�k�k��,8.2,�L
2021/08/14,14:50,0.561,0.825,0.538,1.000,0.686,0.355,0.600,0.567,�k�k��,7.0,�L
2021/08/14,15:00,0.560,0.825,0.538,0.997,0.687,0.352,0.601,0.566,�k,7.8,�L
2021/08/14,15:10,0.563,0.828,0.538,0.999,0.688,0.354,0.600,0.568,�k,7.5,�L
2021/08/14,15:20,0.564,0.826,0.538,1.001,0.688,0.353,0.601,0.569,�k,7.7,�L
2021/08/14,15:30,0.565,0.830,0.540,1.005,0.689,0.353,0.601,0.569,�k,8.3,�L
2021/08/14,15:40,0.567,0.831,0.539,1.006,0.688,0.353,0.601,0.570,�k,7.8,�L
2021/08/14,15:50,0.566,0.830,0.538,1.004,0.687,0.353,0.603,0.568,�k,8.1,�L
2021/08/14,16:00,0.564,0.829,0.538,1.002,0.686,0.352,0.601,0.568,�k,8.5,�L
2021/08/14,16:10,0.562,0.826,0.537,1.001,0.687,0.352,0.600,0.568,�k,8.9,�L
2021/08/14,16:20,0.562,0.826,0.536,1.002,0.686,0.352,0.600,0.567,�k,9.9,�L
2021/08/14,16:30,0.563,0.826,0.537,0.999,0.685,0.352,0.602,0.568,�k,11.0,�L
2021/08/14,16:40,0.563,0.825,0.536,0.997,0.685,0.352,0.602,0.567,�k,9.0,�L
2021/08/14,16:50,0.561,0.823,0.536,0.997,0.683,0.352,0.600,0.565,�k,7.9,�L
2021/08/14,17:00,0.560,0.822,0.537,0.995,0.683,0.352,0.600,0.566,�k,8.4,�L
2021/08/14,17:10,0.557,0.822,0.535,0.992,0.681,0.351,0.597,0.567,�k,10.3,�L
2021/08/14,17:20,0.559,0.823,0.536,0.992,0.683,0.353,0.599,0.566,�k,10.0,�L
2021/08/14,17:30,0.559,0.822,0.536,0.991,0.681,0.352,0.598,0.564,�k�k��,10.7,�L
2021/08/14,17:40,0.559,0.822,0.535,0.991,0.681,0.353,0.596,0.566,�k�k��,9.5,�L
2021/08/14,17:50,0.559,0.820,0.534,0.990,0.681,0.352,0.598,0.565,�k,9.4,�L
2021/08/14,18:00,0.558,0.820,0.534,0.990,0.677,0.351,0.596,0.562,�k�k��,8.8,�L
2021/08/14,18:10,0.554,0.815,0.533,0.988,0.675,0.349,0.595,0.562,�k,9.7,�L
2021/08/14,18:20,0.555,0.819,0.533,0.985,0.678,0.352,0.596,0.562,�k,9.2,�L
2021/08/14,18:30,0.557,0.823,0.534,0.988,0.677,0.352,0.596,0.563,�k,8.9,�L
2021/08/14,18:40,0.561,0.823,0.535,0.991,0.679,0.351,0.598,0.564,�k,7.9,�L
2021/08/14,18:50,0.561,0.825,0.536,0.993,0.681,0.352,0.598,0.564,�k,8.3,�L
2021/08/14,19:00,0.561,0.828,0.533,0.994,0.681,0.352,0.599,0.565,�k,8.6,�L
2021/08/14,19:10,0.560,0.824,0.535,0.995,0.679,0.352,0.599,0.567,�k,9.0,�L
2021/08/14,19:20,0.558,0.822,0.535,0.992,0.679,0.350,0.597,0.565,�k�k��,7.1,�L
2021/08/14,19:30,0.560,0.824,0.535,0.991,0.678,0.352,0.597,0.566,�k,6.9,�L
2021/08/14,19:40,0.560,0.823,0.536,0.994,0.681,0.351,0.598,0.566,�k,7.1,�L
2021/08/14,19:50,0.561,0.824,0.535,0.996,0.680,0.352,0.599,0.566,�k,8.1,�L
2021/08/14,20:00,0.562,0.825,0.535,0.995,0.680,0.352,0.598,0.567,�k�k��,7.0,�L
2021/08/14,20:10,0.561,0.821,0.535,0.996,0.679,0.350,0.600,0.567,�k,8.8,�L
2021/08/14,20:20,0.560,0.822,0.534,0.994,0.677,0.351,0.597,0.564,�k,7.4,�L
2021/08/14,20:30,0.560,0.819,0.534,0.992,0.677,0.349,0.598,0.564,�k,8.8,�L
2021/08/14,20:40,0.558,0.820,0.533,0.990,0.677,0.350,0.599,0.567,�k,8.0,�L
2021/08/14,20:50,0.559,0.819,0.532,0.987,0.677,0.351,0.598,0.563,�k,7.0,�L
2021/08/14,21:00,0.556,0.816,0.533,0.987,0.676,0.351,0.597,0.564,�k,8.3,�L
2021/08/14,21:10,0.554,0.816,0.533,0.986,0.674,0.351,0.597,0.565,�k,6.8,�L
2021/08/14,21:20,0.556,0.819,0.535,0.986,0.675,0.351,0.595,0.566,�k�k��,7.1,�L
2021/08/14,21:30,0.558,0.821,0.534,0.987,0.677,0.352,0.596,0.565,�k�k��,8.2,�L
2021/08/14,21:40,0.552,0.812,0.531,0.982,0.672,0.349,0.594,0.563,�k�k��,8.2,�L
2021/08/14,21:50,0.554,0.814,0.532,0.980,0.672,0.352,0.594,0.562,�k�k��,6.4,�L
2021/08/14,22:00,0.558,0.815,0.533,0.983,0.675,0.352,0.595,0.564,�k�k��,6.4,�L
2021/08/14,22:10,0.560,0.819,0.534,0.986,0.675,0.352,0.596,0.565,�k�k��,7.2,�L
2021/08/14,22:20,0.560,0.819,0.534,0.988,0.674,0.352,0.597,0.565,�k�k��,8.0,�L
2021/08/14,22:30,0.558,0.821,0.533,0.986,0.676,0.354,0.597,0.565,�k�k��,7.4,�L
2021/08/14,22:40,0.559,0.823,0.534,0.991,0.677,0.353,0.598,0.566,�k�k��,6.9,�L
2021/08/14,22:50,0.561,0.823,0.534,0.991,0.677,0.353,0.596,0.566,�k�k��,6.4,�L
2021/08/14,23:00,0.556,0.818,0.534,0.985,0.671,0.353,0.597,0.565,�k�k��,7.6,�L
2021/08/14,23:10,0.557,0.819,0.534,0.985,0.674,0.352,0.598,0.565,�k�k��,7.4,�L
2021/08/14,23:20,0.558,0.821,0.534,0.991,0.676,0.352,0.597,0.564,�k�k��,7.4,�L
2021/08/14,23:30,0.560,0.819,0.534,0.990,0.677,0.353,0.598,0.564,�k�k��,7.1,�L
2021/08/14,23:40,0.559,0.817,0.534,0.989,0.675,0.353,0.598,0.565,�k�k��,7.9,�L
2021/08/14,23:50,0.559,0.818,0.533,0.990,0.675,0.353,0.596,0.567,�k�k��,6.8,�L
